RH
27 26 26 26 25 24 24 21 19 18 18 18 22 25 27 29 30 32 32 31 32 34 41 46 51 56 61 64 68 69 69 67 72 62 59 60 65 70 69 70 70 70 75
26 26 26 25 25 25 24 22 20 18 19 23 25 27 29 31 31 32 32 33 38 42 44 49 53 59 61 67 70 71 70 68 66 72 79 75 67 63 65 70 86 84 76
27 27 26 26 27 26 23 20 19 20 22 25 28 30 31 32 32 32 36 42 44 45 47 51 54 58 64 68 71 72 66 64 69 67 67 64 64 75 81 80 79 57 57
29 29 28 29 27 24 21 20 21 22 24 27 30 31 32 32 32 37 44 46 46 46 47 50 54 58 64 70 67 64 71 67 68 72 80 89 82 72 96 68 61 59 61
29 30 30 28 24 22 21 21 22 24 27 30 32 31 32 33 36 46 47 46 47 48 50 52 57 62 64 61 62 66 68 82 95 96 76 75 94 69 66 65 68 67 67
30 31 28 25 23 22 22 22 23 26 30 32 33 33 33 34 44 46 48 49 51 54 58 59 61 67 66 65 66 65 68 68 69 78 96 78 71 70 71 70 79 94 87
32 28 26 24 22 22 22 23 27 30 32 33 33 34 34 33 45 49 53 57 60 63 63 64 67 70 77 83 78 65 70 80 95 77 78 75 72 74 92 95 85 84 85
28 26 25 22 21 22 24 28 30 32 34 34 34 34 34 36 50 57 62 66 66 66 67 69 71 85 78 64 65 84 97 85 83 70 65 77 92 79 71 82 92 95 94
26 25 24 21 23 24 28 32 33 35 35 35 34 34 36 43 51 61 65 66 68 69 70 73 85 75 66 67 96 83 79 74 62 72 82 70 66 66 75 94 93 92 86
25 25 22 23 25 28 32 34 36 36 36 36 35 37 42 49 54 64 64 65 69 71 82 94 80 68 67 87 64 68 72 69 95 94 70 69 75 78 79 88 97 94 92
25 23 24 25 28 33 35 36 37 36 36 38 41 46 52 55 58 66 64 64 66 90 81 73 74 79 80 61 62 69 73 82 86 74 78 82 83 82 84 92 98 98 94
24 24 26 29 33 37 37 37 36 38 41 44 50 55 58 59 61 66 63 62 69 64 77 83 94 79 64 65 69 72 73 75 78 86 87 84 86 92 94 97 97 98 99
25 26 30 34 39 39 39 39 40 43 48 54 59 61 63 62 62 63 66 64 63 70 86 77 74 68 67 73 75 74 72 80 90 93 89 88 91 96 99 98 97 96 97
26 31 34 37 46 41 41 42 47 52 56 63 63 64 65 65 64 64 66 64 76 82 83 81 71 68 73 76 76 76 79 82 88 94 94 93 93 92 92 95 97 94 96
30 35 38 43 44 44 44 47 53 56 60 62 62 62 65 66 65 63 62 65 69 71 69 74 72 77 82 80 79 80 83 86 91 92 94 94 92 91 92 91 97 95 94
34 38 44 46 46 47 50 51 49 61 62 61 61 62 63 65 63 64 64 68 68 71 76 76 82 85 85 84 86 89 89 88 93 96 96 95 95 94 94 92 92 95 94
37 45 47 47 50 52 55 57 62 58 62 61 60 62 64 63 66 67 71 70 75 76 81 87 89 88 89 90 92 93 93 93 96 96 97 96 96 96 92 93 92 93 91
41 46 49 50 51 55 58 58 61 67 69 65 61 62 61 64 69 73 73 77 81 84 88 90 91 92 92 95 95 96 96 96 96 98 96 97 97 97 95 93 93 95 94
46 48 53 53 54 61 62 63 61 65 68 64 62 62 62 69 76 78 78 85 90 91 90 92 93 95 96 97 97 98 98 97 96 97 97 98 97 97 94 94 96 91 91
48 45 61 60 61 65 66 61 65 64 62 63 63 64 68 80 88 83 85 90 92 92 93 96 96 97 98 99 99 99 98 97 97 98 97 98 98 98 97 97 97 96 96
50 52 64 62 67 67 60 63 59 60 63 63 67 72 76 82 84 86 92 91 93 97 99 99 99 99 100 100 100 100 99 98 98 97 98 98 98 97 99 99 99 98 98
57 57 61 67 66 59 61 58 58 64 67 71 79 82 82 85 87 92 92 94 97 100 100 100 100 100 98 98 98 98 100 99 98 99 99 100 99 99 99 99 100 98 98
56 56 60 61 57 61 60 61 67 70 77 83 86 88 88 90 92 92 95 99 100 100 100 100 100 99 98 98 97 97 97 97 97 98 99 100 99 98 98 98 100 98 98
50 56 58 57 60 66 67 73 77 84 87 91 94 92 93 92 95 97 100 100 100 100 100 100 99 97 96 96 96 96 96 96 97 98 99 99 99 100 98 99 100 99 95
52 56 60 64 68 72 77 84 91 96 100 98 96 95 97 99 100 100 100 100 100 100 98 96 96 96 96 96 96 97 98 98 99 99 99 99 99 100 100 100 100 99 98
56 60 66 71 75 81 88 94 96 100 100 100 100 100 100 100 100 100 100 100 100 98 95 94 96 96 96 96 97 98 99 99 97 97 100 100 99 100 98 98 99 99 96
Wind_Speed
24 23 20 17 13 10 7 5 4 3 5 7 10 13 15 17 19 19 20 21 20 16 23 19 21 24 23 24 24 23 23 22 14 34 36 34 32 32 32 29 28 31 32
23 21 18 15 11 8 6 4 3 4 6 9 12 15 17 19 21 21 21 19 20 25 24 20 22 23 26 24 24 25 26 28 25 17 34 35 35 37 34 31 27 23 28
23 20 17 13 9 6 4 3 4 6 8 10 13 16 18 20 22 20 19 24 24 23 22 21 24 26 26 26 28 26 26 26 26 28 30 37 36 33 33 28 27 34 31
21 18 15 10 7 5 3 3 5 7 10 13 15 17 18 20 21 20 24 24 25 24 23 24 25 26 28 28 27 28 25 30 30 30 30 29 29 32 22 31 32 30 33
20 16 12 9 6 4 2 4 6 9 11 14 15 18 20 21 19 23 24 25 26 28 28 27 25 26 29 30 30 31 33 30 28 24 27 29 18 29 23 30 31 35 33
18 14 11 7 4 3 3 6 8 11 14 15 17 19 21 22 21 21 23 26 27 26 26 27 29 25 26 31 34 34 35 35 35 30 20 19 24 28 31 32 30 20 14
17 13 9 6 4 2 5 7 10 13 15 16 18 20 21 22 20 22 24 25 25 27 28 28 28 23 29 30 33 36 36 37 28 33 28 28 30 33 33 26 29 27 24
16 12 8 5 3 3 6 9 12 14 16 17 19 19 20 21 21 23 24 24 28 27 27 26 25 29 29 35 37 35 24 31 24 29 31 33 32 35 37 34 32 32 31
15 10 6 3 2 4 8 11 12 15 16 18 19 20 21 22 21 23 24 26 24 26 25 24 26 29 34 37 36 31 28 28 32 31 31 34 37 35 33 33 24 20 14
13 9 5 3 2 6 8 11 13 15 16 18 20 21 21 22 22 22 23 24 24 27 26 23 23 32 36 34 37 30 27 32 31 28 31 32 32 32 31 28 27 16 10
11 8 5 2 4 6 8 12 14 15 17 20 21 22 21 21 23 21 22 25 25 26 25 26 28 31 34 37 34 27 30 35 30 30 30 30 30 29 30 29 29 27 24
10 7 4 2 4 6 10 12 14 16 19 21 22 20 19 22 22 21 23 25 27 27 25 28 28 33 35 32 28 29 32 31 28 27 27 27 29 30 31 33 35 35 34
9 6 3 2 4 8 10 12 16 19 19 21 17 18 19 21 22 23 23 26 27 28 27 31 31 31 30 27 27 29 29 26 26 24 25 27 30 33 35 33 32 32 32
8 4 2 4 6 8 9 13 15 17 18 16 16 18 19 20 22 24 24 27 24 25 27 24 27 26 25 26 26 26 26 26 27 25 26 31 32 30 31 30 29 30 26
6 3 3 4 8 10 12 15 14 15 16 19 20 20 20 21 22 28 29 30 30 31 32 23 24 24 25 25 26 26 27 26 25 26 28 29 29 29 29 30 27 27 19
4 1 3 7 9 11 15 18 17 13 15 16 17 19 22 22 26 28 28 29 31 28 23 21 22 22 22 24 25 27 27 28 27 28 28 28 27 27 27 28 26 22 17
1 3 6 8 11 14 15 16 17 21 16 16 18 20 20 23 25 26 28 30 25 23 19 20 21 22 24 25 25 26 27 29 29 27 27 27 27 26 27 25 24 21 19
3 4 7 10 12 13 14 16 18 17 16 19 18 18 20 23 24 25 27 23 22 21 19 21 22 24 25 26 27 27 29 30 28 27 28 28 26 24 24 23 21 18 17
4 7 10 11 12 12 14 16 18 18 17 19 21 19 21 22 23 23 21 18 20 21 22 23 24 25 27 28 28 28 28 29 29 28 27 26 26 24 23 24 21 23 21
6 9 9 11 12 14 16 19 17 16 17 17 19 21 23 24 20 22 21 21 20 22 24 25 26 27 28 28 29 29 29 30 29 27 27 26 26 24 23 23 19 17 15
8 10 10 12 13 14 16 16 17 17 16 17 19 21 24 22 20 20 22 22 22 24 25 26 28 29 29 29 29 29 29 30 28 27 26 26 25 23 25 21 19 18 14
9 11 12 13 13 16 16 18 18 16 16 17 20 22 22 19 19 21 22 23 25 25 26 27 29 30 31 31 31 30 30 30 30 28 28 28 26 25 23 19 18 17 14
10 11 12 13 15 14 17 18 16 16 17 18 20 20 20 20 21 22 23 25 26 27 28 28 30 33 35 35 34 31 30 33 33 33 31 31 27 20 19 17 16 15 11
10 11 12 14 16 15 17 15 16 16 18 20 19 19 20 21 22 23 24 26 27 29 31 32 33 36 38 39 37 35 34 34 35 38 29 18 16 18 19 17 15 11 5
10 11 13 15 17 18 18 18 17 19 19 19 20 20 22 22 23 23 25 26 28 31 34 35 37 38 38 37 34 33 35 37 31 16 16 14 15 15 14 13 11 10 4
11 13 15 17 18 19 19 20 22 20 20 20 20 22 22 23 23 25 26 27 30 34 35 37 39 38 37 34 32 35 33 25 18 17 17 13 12 12 12 12 11 11 8
Wind_Direction
141 138 136 134 129 124 116 99 75 38 10 357 352 349 346 343 343 339 336 334 325 324 326 323 326 330 321 313 308 301 294 290 285 295 296 301 302 298 294 289 285 282 281
143 140 138 136 133 128 108 82 50 18 2 354 351 346 343 342 339 337 334 332 327 324 323 319 323 325 323 316 309 301 294 290 285 289 298 302 298 299 298 294 289 286 285
147 144 139 138 136 117 100 63 22 4 358 356 349 346 342 339 337 337 333 329 326 321 317 314 319 322 317 311 304 295 295 296 297 294 292 293 294 298 296 297 300 297 292
149 144 142 137 125 110 79 40 12 1 355 350 348 343 341 339 338 333 331 329 326 322 319 316 315 316 313 307 304 304 305 303 299 292 287 290 291 300 306 304 302 298 292
148 147 140 133 121 101 71 22 5 358 353 347 344 344 344 342 335 332 331 328 326 323 321 321 318 313 311 310 309 313 308 303 296 298 292 293 308 309 307 302 293 293 292
152 146 141 133 123 96 34 7 357 354 350 348 348 346 342 342 337 333 329 327 327 329 329 325 321 312 311 312 311 309 307 307 301 296 307 307 305 304 300 293 293 297 309
150 146 141 136 122 63 16 358 352 352 349 346 346 344 342 342 339 333 332 329 330 329 325 321 317 313 314 309 305 307 302 299 310 311 307 299 299 297 295 303 302 296 293
148 144 144 135 97 28 1 355 352 347 345 343 341 341 340 341 338 338 333 329 327 322 318 316 316 314 313 314 312 308 319 315 314 306 301 301 301 306 306 302 299 294 291
147 146 140 123 72 4 357 353 348 340 339 338 339 340 339 338 340 336 333 328 318 313 313 312 319 315 316 316 319 324 320 314 312 310 308 307 306 306 307 307 303 303 297
149 145 144 124 28 4 351 346 342 339 333 335 336 340 339 337 335 333 330 323 318 315 316 316 316 320 320 325 325 324 322 313 311 320 318 314 311 308 310 306 299 292 293
147 146 137 89 17 353 344 343 340 338 335 339 340 341 342 339 332 328 328 327 321 321 320 321 320 321 324 325 323 326 310 318 326 321 314 311 312 310 308 304 298 292 292
147 139 119 55 6 355 343 341 343 343 342 342 339 335 336 333 332 326 328 327 326 325 323 320 316 324 324 323 324 320 322 326 319 315 313 314 314 311 309 307 304 299 293
143 128 103 36 12 352 347 346 345 348 346 339 331 328 326 328 330 328 326 328 328 327 323 318 323 323 323 323 324 324 325 321 317 313 316 312 312 309 307 307 306 303 299
138 126 65 12 349 348 353 354 350 347 339 331 328 325 324 326 331 328 330 329 329 328 325 327 326 325 324 322 323 323 322 321 320 318 314 312 313 313 313 313 310 310 307
131 99 15 348 343 346 351 357 348 341 335 329 328 329 327 327 327 331 331 329 333 333 331 331 328 327 325 325 323 322 323 323 322 320 317 314 314 314 313 316 313 314 310
119 44 350 342 344 346 347 342 348 336 333 331 331 330 327 323 326 329 328 332 331 331 332 326 323 322 321 320 319 319 321 322 320 318 314 312 310 313 314 317 319 316 315
86 3 349 344 346 343 341 341 331 339 336 335 333 330 327 324 328 328 332 331 331 334 327 322 319 319 318 317 317 318 317 317 316 314 311 309 312 311 317 316 318 321 319
12 355 348 347 342 339 337 336 337 327 324 326 329 329 328 328 329 332 333 332 330 331 326 321 318 318 316 315 316 316 315 315 316 313 313 312 312 312 314 316 316 319 321
360 356 346 337 338 334 335 337 336 333 322 319 323 328 332 330 329 332 335 331 323 322 323 320 318 316 314 313 313 313 312 311 312 312 309 310 312 314 314 315 315 324 333
357 349 342 335 338 340 341 340 337 331 323 320 321 324 327 330 338 334 331 327 323 321 320 319 317 314 312 312 312 312 311 311 310 309 308 308 310 312 312 312 318 319 323
346 340 338 336 342 342 339 338 336 326 321 319 317 322 329 335 327 323 323 323 323 321 319 317 314 313 311 311 311 310 308 305 305 304 304 306 309 309 312 309 317 321 326
335 334 339 342 341 341 340 335 334 326 319 317 318 321 328 327 324 322 320 321 321 318 316 314 311 310 311 310 310 308 305 303 303 304 304 305 306 306 304 311 320 327 339
334 338 341 343 342 339 338 339 332 325 320 320 318 319 322 322 322 319 319 321 320 318 318 317 313 314 319 318 316 308 300 299 303 305 300 299 299 302 315 318 327 331 348
342 345 344 343 344 338 338 330 326 324 324 319 318 318 318 319 318 317 319 320 319 319 321 321 322 323 326 326 324 324 322 320 317 308 308 311 324 331 335 339 343 357 33
352 347 344 343 341 338 335 332 325 325 320 318 318 316 317 317 316 318 319 319 319 322 325 331 332 331 331 334 337 339 343 332 334 345 347 345 342 338 340 350 5 14 37
349 347 344 342 340 339 334 332 328 323 317 317 316 315 316 316 317 317 318 320 323 326 332 335 335 339 342 344 347 350 348 352 353 354 354 355 352 359 7 28 31 36 48